GW4606 Weather Reports


time (UTC)temp
C
wind
direction
speed
KPH
gust
KPH
rain 1hr
cm
rain 24hr
cm
rain mn
cm
humidity
%
barometer
mb
20260508092708 3 228 1.6 3.2 0.00 0.00 0.00 86 1015.9
20260508092206 3 217 0.0 0.0 0.00 0.00 0.00 85 1015.9
20260508091703 3 229 0.0 0.0 0.00 0.00 0.00 85 1016.0
20260508091200 3 227 0.0 0.0 0.00 0.00 0.00 85 1015.9
20260508090658 3 227 0.0 1.6 0.00 0.00 0.00 85 1016.0
20260508090155 3 217 0.0 0.0 0.00 0.00 0.00 85 1016.0
20260508085651 3 217 0.0 0.0 0.00 0.00 0.00 85 1016.0
20260508085149 3 214 0.0 1.6 0.00 0.00 0.00 85 1015.7
20260508084645 3 218 0.0 0.0 0.00 0.00 0.00 86 1015.8
20260508084142 3 200 0.0 0.0 0.00 0.00 0.00 85 1015.9
20260508083640 3 235 0.0 0.0 0.00 0.00 0.00 84 1016.0
20260508083137 4 235 0.0 1.6 0.00 0.00 0.00 84 1016.0
20260508082632 4 241 0.0 1.6 0.00 0.00 0.00 84 1015.8
20260508082130 4 240 0.0 0.0 0.00 0.00 0.00 84 1015.9
20260508081627 4 241 0.0 1.6 0.00 0.00 0.00 84 1015.9
20260508081123 4 240 0.0 0.0 0.00 0.00 0.00 83 1015.9
20260508080621 4 232 0.0 1.6 0.00 0.00 0.00 82 1015.9
20260508080119 4 227 1.6 3.2 0.00 0.00 0.00 83 1016.0
20260508075615 4 229 1.6 1.6 0.00 0.00 0.00 83 1015.9
20260508075112 4 229 0.0 0.0 0.00 0.00 0.00 84 1015.9
20260508074610 4 228 0.0 0.0 0.00 0.00 0.00 84 1015.9
20260508074107 4 229 1.6 1.6 0.00 0.00 0.00 83 1015.9
20260508073604 4 200 0.0 0.0 0.00 0.00 0.00 83 1015.7
20260508073101 4 226 0.0 1.6 0.00 0.00 0.00 82 1015.7
20260508072551 4 200 0.0 0.0 0.00 0.00 0.00 82 1016.0
20260508072049 4 200 0.0 0.0 0.00 0.00 0.00 82 1015.9
20260508071547 4 189 0.0 0.0 0.00 0.00 0.00 83 1015.9
20260508071045 4 189 0.0 0.0 0.00 0.00 0.00 83 1015.8
20260508070542 4 200 0.0 0.0 0.00 0.00 0.00 82 1016.0
20260508070040 4 200 0.0 0.0 0.00 0.00 0.00 83 1015.8
20260508065537 4 200 0.0 0.0 0.00 0.00 0.00 83 1016.0
20260508065035 4 201 0.0 0.0 0.00 0.00 0.00 84 1016.0
20260508064532 4 194 0.0 0.0 0.00 0.00 0.00 84 1015.8
20260508064030 4 164 0.0 0.0 0.00 0.00 0.00 82 1016.0
20260508063527 5 162 0.0 3.2 0.00 0.00 0.00 81 1016.0
20260508063025 4 196 0.0 0.0 0.00 0.00 0.00 81 1016.4
20260508062517 5 200 0.0 0.0 0.00 0.00 0.00 80 1016.2
20260508062013 5 200 0.0 0.0 0.00 0.00 0.00 80 1016.2
20260508061511 5 200 0.0 0.0 0.00 0.00 0.00 80 1016.2
20260508061007 5 200 0.0 0.0 0.00 0.00 0.00 80 1016.2
20260508060505 5 200 0.0 0.0 0.00 0.00 0.00 80 1016.2
20260508060001 5 200 0.0 0.0 0.00 0.00 0.00 80 1016.4
20260508055458 5 200 0.0 0.0 0.00 0.00 0.00 81 1016.2
20260508054954 5 200 0.0 0.0 0.00 0.00 0.00 81 1016.2
20260508054451 5 200 0.0 0.0 0.00 0.00 0.00 81 1016.4
20260508053948 5 200 0.0 0.0 0.00 0.00 0.00 80 1016.3
20260508053445 5 200 0.0 0.0 0.00 0.00 0.00 79 1016.3
20260508052943 5 200 0.0 0.0 0.00 0.00 0.00 80 1016.4
20260508052440 5 200 0.0 0.0 0.00 0.00 0.00 79 1016.4
20260508051937 5 200 0.0 0.0 0.00 0.00 0.00 79 1016.5
20260508051432 5 200 0.0 0.0 0.00 0.00 0.00 79 1016.6
20260508050928 5 200 0.0 0.0 0.00 0.00 0.00 78 1016.5
20260508050425 5 197 0.0 0.0 0.00 0.00 0.00 78 1016.5
20260508045921 5 197 0.0 0.0 0.00 0.00 0.00 77 1016.5
20260508045419 5 212 0.0 0.0 0.00 0.00 0.00 79 1016.5
20260508044916 5 212 0.0 0.0 0.00 0.00 0.00 78 1016.5
20260508044413 5 212 0.0 0.0 0.00 0.00 0.00 78 1016.5
20260508043903 5 212 0.0 0.0 0.00 0.00 0.00 76 1016.6
20260508043401 6 212 0.0 0.0 0.00 0.00 0.00 75 1016.3
20260508042856 6 212 0.0 0.0 0.00 0.00 0.00 74 1016.3
20260508042354 5 215 0.0 0.0 0.00 0.00 0.00 76 1016.3
20260508041851 6 215 0.0 0.0 0.00 0.00 0.00 75 1016.3
20260508041347 6 216 0.0 0.0 0.00 0.00 0.00 74 1016.4
20260508040844 6 216 0.0 0.0 0.00 0.00 0.00 72 1016.2
20260508040341 7 216 0.0 0.0 0.00 0.00 0.00 71 1016.3
20260508035839 7 217 1.6 1.6 0.00 0.00 0.00 69 1016.3
20260508035336 7 217 1.6 1.6 0.00 0.00 0.00 68 1016.3
20260508034832 7 217 0.0 0.0 0.00 0.00 0.00 68 1016.3
20260508034324 7 217 0.0 0.0 0.00 0.00 0.00 68 1016.2
20260508033821 6 268 0.0 0.0 0.00 0.00 0.00 70 1016.1
20260508033319 7 268 0.0 0.0 0.00 0.00 0.00 70 1016.1
20260508032816 7 268 0.0 0.0 0.00 0.00 0.00 70 1016.0
20260508032314 7 268 0.0 0.0 0.00 0.00 0.00 68 1016.2
20260508031810 8 268 0.0 0.0 0.00 0.00 0.00 58 1016.2
20260508031307 8 270 0.0 1.6 0.00 0.00 0.00 59 1016.2
20260508030803 8 273 0.0 1.6 0.00 0.00 0.00 59 1016.2
20260508030301 7 274 0.0 0.0 0.00 0.00 0.00 60 1016.4
20260508025757 7 274 0.0 0.0 0.00 0.00 0.00 61 1016.4
20260508025254 8 274 0.0 0.0 0.00 0.00 0.00 60 1016.2
20260508024750 8 274 0.0 0.0 0.00 0.00 0.00 59 1016.2
20260508024247 8 274 0.0 0.0 0.00 0.00 0.00 59 1016.3
20260508023744 8 277 0.0 0.0 0.00 0.00 0.00 60 1016.3
20260508023242 9 278 0.0 0.0 0.00 0.00 0.00 58 1016.3
20260508022737 9 277 0.0 1.6 0.00 0.00 0.00 57 1016.1
20260508022234 9 277 0.0 0.0 0.00 0.00 0.00 57 1016.0
20260508021731 10 304 0.0 1.6 0.00 0.00 0.00 56 1016.0
20260508021226 10 304 1.6 3.2 0.00 0.00 0.00 55 1016.1
20260508020724 9 296 0.0 0.0 0.00 0.00 0.00 57 1016.1
20260508020221 9 296 0.0 0.0 0.00 0.00 0.00 58 1016.0
20260508015718 9 304 1.6 3.2 0.00 0.00 0.00 57 1015.9
20260508015215 9 296 0.0 0.0 0.00 0.00 0.00 57 1015.8
20260508014712 10 296 0.0 3.2 0.00 0.00 0.00 57 1015.6
20260508014209 10 296 0.0 1.6 0.00 0.00 0.00 56 1015.7
20260508013704 10 295 1.6 3.2 0.00 0.00 0.00 56 1015.6
20260508013201 10 304 1.6 3.2 0.00 0.00 0.00 55 1015.6
20260508012659 10 307 0.0 3.2 0.00 0.00 0.00 55 1015.7
20260508012155 10 286 0.0 1.6 0.00 0.00 0.00 54 1015.5
20260508011654 10 286 0.0 1.6 0.00 0.00 0.00 54 1015.5
20260508011151 10 295 0.0 0.0 0.00 0.00 0.00 54 1015.3
20260508010647 10 295 0.0 0.0 0.00 0.00 0.00 54 1015.3
20260508010145 10 295 0.0 0.0 0.00 0.00 0.00 53 1015.2
20260508005642 10 295 0.0 0.0 0.00 0.00 0.00 52 1015.4
20260508005139 11 295 0.0 0.0 0.00 0.00 0.00 51 1015.3
20260508004634 11 283 1.6 3.2 0.00 0.00 0.00 49 1015.4
20260508004131 11 283 1.6 3.2 0.00 0.00 0.00 50 1015.3
20260508003627 11 274 1.6 1.6 0.00 0.00 0.00 49 1015.1
20260508003125 12 285 1.6 4.8 0.00 0.00 0.00 49 1015.0
20260508002621 12 278 0.0 4.8 0.00 0.00 0.00 50 1015.2
20260508002119 12 285 4.8 6.4 0.00 0.00 0.00 48 1014.9
20260508001614 12 287 3.2 12.9 0.00 0.00 0.00 48 1014.9
20260508001111 12 275 3.2 6.4 0.00 0.00 0.00 48 1014.9
20260508000606 12 314 0.0 11.3 0.00 0.00 0.00 48 1014.7
20260508000104 12 308 3.2 4.8 0.00 0.00 0.00 46 1014.9
20260507235601 13 287 4.8 9.7 0.00 0.00 0.00 47 1014.7
20260507235058 13 280 3.2 4.8 0.00 0.00 0.00 47 1014.9
20260507234554 13 285 1.6 9.7 0.00 0.00 0.00 47 1014.7
20260507234051 13 298 9.7 12.9 0.00 0.00 0.00 45 1014.7
20260507233548 13 293 4.8 14.5 0.00 0.00 0.00 44 1014.4
20260507233047 13 300 9.7 14.5 0.00 0.00 0.00 43 1014.6
20260507232542 13 265 8.0 12.9 0.00 0.00 0.00 44 1014.6
20260507232040 14 257 1.6 17.7 0.00 0.00 0.00 45 1014.4
20260507231536 14 292 4.8 14.5 0.00 0.00 0.00 41 1014.5
20260507231034 15 262 8.0 12.9 0.00 0.00 0.00 40 1014.4
20260507230530 15 312 1.6 9.7 0.00 0.00 0.00 42 1014.4
20260507230027 15 312 8.0 9.7 0.00 0.00 0.00 41 1014.2
20260507225522 15 279 8.0 20.9 0.00 0.00 0.00 39 1014.0
20260507225018 15 225 9.7 14.5 0.00 0.00 0.00 39 1014.1
20260507224514 15 264 4.8 17.7 0.00 0.00 0.00 40 1014.2
20260507224011 15 273 3.2 16.1 0.00 0.00 0.00 38 1014.0
20260507223507 15 270 9.7 14.5 0.00 0.00 0.00 39 1014.2
20260507223004 16 275 9.7 14.5 0.00 0.00 0.00 35 1014.0
20260507222501 16 290 8.0 12.9 0.00 0.00 0.00 36 1014.0
20260507221956 16 307 6.4 6.4 0.00 0.00 0.00 36 1014.0
20260507221448 16 244 3.2 12.9 0.00 0.00 0.00 37 1013.8
20260507220945 16 219 6.4 12.9 0.00 0.00 0.00 37 1013.8
20260507220442 16 221 3.2 9.7 0.00 0.00 0.00 39 1013.6
20260507215938 16 271 6.4 11.3 0.00 0.00 0.00 38 1013.8
20260507215430 16 269 6.4 12.9 0.00 0.00 0.00 37 1013.8
20260507214927 16 274 8.0 11.3 0.00 0.00 0.00 36 1013.8
20260507214425 16 239 8.0 14.5 0.00 0.00 0.00 37 1013.6
20260507213920 16 261 11.3 16.1 0.00 0.00 0.00 36 1013.6
20260507213417 16 274 6.4 11.3 0.00 0.00 0.00 37 1013.4
20260507212914 16 247 8.0 11.3 0.00 0.00 0.00 38 1013.3
20260507212409 16 307 9.7 12.9 0.00 0.00 0.00 37 1013.5
20260507211906 16 283 9.7 16.1 0.00 0.00 0.00 39 1013.4
20260507211403 16 0 6.4 9.7 0.00 0.00 0.00 36 1013.1
20260507210900 17 253 4.8 6.4 0.00 0.00 0.00 35 1013.2
20260507210357 16 278 3.2 9.7 0.00 0.00 0.00 37 1013.4
20260507205853 16 271 9.7 11.3 0.00 0.00 0.00 35 1013.2
20260507205350 16 274 6.4 14.5 0.00 0.00 0.00 37 1013.2
20260507204846 16 236 6.4 12.9 0.00 0.00 0.00 39 1013.2
20260507204343 16 231 3.2 14.5 0.00 0.00 0.00 41 1013.1
20260507203841 17 277 8.0 12.9 0.00 0.00 0.00 40 1013.0
20260507203339 16 223 3.2 11.3 0.00 0.00 0.00 37 1013.0
20260507202835 17 13 9.7 16.1 0.00 0.00 0.00 37 1013.1
20260507202331 16 236 3.2 12.9 0.00 0.00 0.00 41 1013.1
20260507201827 16 278 8.0 14.5 0.00 0.00 0.00 41 1013.2
20260507201323 16 261 6.4 11.3 0.00 0.00 0.00 44 1013.2
20260507200819 16 304 6.4 12.9 0.00 0.00 0.00 41 1013.3
20260507200315 17 272 3.2 9.7 0.00 0.00 0.00 45 1013.1
20260507195811 16 243 4.8 17.7 0.00 0.00 0.00 43 1013.2
20260507195309 16 271 6.4 14.5 0.00 0.00 0.00 41 1013.3
20260507194806 16 248 6.4 12.9 0.00 0.00 0.00 42 1013.3
20260507194302 16 228 4.8 17.7 0.00 0.00 0.00 40 1013.3
20260507193758 17 295 11.3 22.5 0.00 0.00 0.00 41 1013.5
20260507193250 16 19 4.8 9.7 0.00 0.00 0.00 46 1013.5
20260507192746 16 281 6.4 12.9 0.00 0.00 0.00 45 1013.8
20260507192243 16 271 4.8 17.7 0.00 0.00 0.00 41 1013.5
20260507191739 16 286 3.2 6.4 0.00 0.00 0.00 47 1013.9
20260507191236 16 194 3.2 12.9 0.00 0.00 0.00 41 1014.0
20260507190732 17 267 9.7 16.1 0.00 0.00 0.00 39 1013.9
20260507190231 17 234 3.2 6.4 0.00 0.00 0.00 40 1013.9
20260507185730 16 249 6.4 9.7 0.00 0.00 0.00 42 1014.1
20260507185226 16 276 6.4 14.5 0.00 0.00 0.00 44 1014.0
20260507184724 16 290 6.4 12.9 0.00 0.00 0.00 43 1014.1
20260507184221 17 319 0.0 6.4 0.00 0.00 0.00 45 1013.9
20260507183717 16 309 6.4 17.7 0.00 0.00 0.00 41 1013.9
20260507183209 17 273 3.2 6.4 0.00 0.00 0.00 43 1014.0
20260507182706 16 283 1.6 3.2 0.00 0.00 0.00 43 1013.9
20260507182201 15 269 4.8 14.5 0.00 0.00 0.00 45 1014.2
20260507181658 16 227 6.4 12.9 0.00 0.00 0.00 45 1013.8
20260507181154 15 210 8.0 22.5 0.00 0.00 0.00 45 1014.0
20260507180651 15 257 6.4 9.7 0.00 0.00 0.00 44 1014.0
20260507180148 15 279 3.2 14.5 0.00 0.00 0.00 50 1013.8
20260507175643 16 247 11.3 16.1 0.00 0.00 0.00 44 1013.9
20260507175141 15 236 4.8 16.1 0.00 0.00 0.00 46 1014.2
20260507174638 15 257 1.6 11.3 0.00 0.00 0.00 46 1014.0
20260507174136 16 1 8.0 11.3 0.00 0.00 0.00 42 1014.0
20260507173633 16 277 0.0 6.4 0.00 0.00 0.00 43 1014.2
20260507173130 16 253 4.8 14.5 0.00 0.00 0.00 52 1014.2
20260507172626 15 287 6.4 12.9 0.00 0.00 0.00 49 1014.1
20260507172124 15 264 4.8 4.8 0.00 0.00 0.00 48 1014.3
20260507171618 15 255 0.0 3.2 0.00 0.00 0.00 45 1014.3
20260507171116 15 272 3.2 9.7 0.00 0.00 0.00 49 1014.4
20260507170613 15 258 9.7 12.9 0.00 0.00 0.00 47 1014.4
20260507170110 13 225 1.6 9.7 0.00 0.00 0.00 47 1014.4
20260507165605 14 301 0.0 4.8 0.00 0.00 0.00 51 1014.5
20260507165102 15 337 4.8 6.4 0.00 0.00 0.00 48 1014.5
20260507164558 14 317 8.0 14.5 0.00 0.00 0.00 49 1014.6
20260507164055 13 234 6.4 11.3 0.00 0.00 0.00 55 1014.7
20260507163552 15 265 6.4 11.3 0.00 0.00 0.00 52 1014.7
20260507163050 15 298 3.2 9.7 0.00 0.00 0.00 56 1014.5
20260507162550 15 98 1.6 6.4 0.00 0.00 0.00 46 1014.7
20260507162048 16 255 6.4 14.5 0.00 0.00 0.00 51 1014.6
20260507161544 14 276 3.2 11.3 0.00 0.00 0.00 58 1014.9
20260507161040 14 279 9.7 14.5 0.00 0.00 0.00 50 1014.8
20260507160537 13 305 4.8 16.1 0.00 0.00 0.00 51 1014.8
20260507160033 15 122 1.6 6.4 0.00 0.00 0.00 50 1014.7
20260507155528 15 236 3.2 3.2 0.00 0.00 0.00 52 1014.7
20260507155026 13 270 4.8 11.3 0.00 0.00 0.00 53 1014.9
20260507154522 15 274 3.2 11.3 0.00 0.00 0.00 51 1014.8
20260507154020 15 286 1.6 4.8 0.00 0.00 0.00 54 1014.8
20260507153516 14 258 6.4 9.7 0.00 0.00 0.00 53 1015.0
20260507153012 13 275 6.4 6.4 0.00 0.00 0.00 54 1014.9
20260507152508 14 287 4.8 9.7 0.00 0.00 0.00 53 1014.9
20260507152005 13 279 4.8 9.7 0.00 0.00 0.00 55 1014.9
20260507151501 13 265 3.2 9.7 0.00 0.00 0.00 58 1015.0
20260507150958 13 275 6.4 9.7 0.00 0.00 0.00 57 1015.0
20260507150455 14 297 1.6 4.8 0.00 0.00 0.00 56 1015.0
20260507145951 15 148 1.6 4.8 0.00 0.00 0.00 55 1015.1
20260507145447 13 264 3.2 6.4 0.00 0.00 0.00 61 1015.0
20260507144944 13 249 3.2 6.4 0.00 0.00 0.00 59 1015.2
20260507144441 13 8 4.8 12.9 0.00 0.00 0.00 57 1015.3
20260507143938 13 279 4.8 6.4 0.00 0.00 0.00 63 1015.3
20260507143436 13 271 6.4 6.4 0.00 0.00 0.00 57 1015.4
20260507142932 13 259 3.2 11.3 0.00 0.00 0.00 57 1015.4
20260507142428 13 247 1.6 3.2 0.00 0.00 0.00 58 1015.4
20260507141926 13 276 4.8 11.3 0.00 0.00 0.00 61 1015.5
20260507141421 13 275 8.0 9.7 0.00 0.00 0.00 63 1015.4
20260507140918 13 278 3.2 4.8 0.00 0.00 0.00 66 1015.4
20260507140415 12 81 3.2 4.8 0.00 0.00 0.00 63 1015.5
20260507135913 12 109 1.6 4.8 0.00 0.00 0.00 65 1015.7
20260507135409 12 251 3.2 9.7 0.00 0.00 0.00 68 1015.7
20260507134907 13 213 3.2 4.8 0.00 0.00 0.00 63 1015.8
20260507134402 12 264 1.6 4.8 0.00 0.00 0.00 64 1015.7
20260507133859 12 273 1.6 1.6 0.00 0.00 0.00 63 1015.8
20260507133354 13 273 4.8 4.8 0.00 0.00 0.00 69 1015.8
20260507132853 12 273 0.0 1.6 0.00 0.00 0.00 70 1015.9
20260507132349 12 273 1.6 3.2 0.00 0.00 0.00 69 1015.9
20260507131847 11 273 0.0 4.8 0.00 0.00 0.00 70 1016.0
20260507131343 11 278 1.6 3.2 0.00 0.00 0.00 74 1015.9
20260507130840 11 278 0.0 3.2 0.00 0.00 0.00 74 1016.2
20260507130337 11 278 1.6 4.8 0.00 0.00 0.00 75 1016.0
20260507125836 11 278 0.0 0.0 0.00 0.00 0.00 74 1016.0
20260507125333 10 278 1.6 3.2 0.00 0.00 0.00 76 1015.9
20260507124830 11 278 3.2 3.2 0.00 0.00 0.00 77 1016.0
20260507124326 11 278 0.0 0.0 0.00 0.00 0.00 77 1015.9
20260507123825 11 277 0.0 0.0 0.00 0.00 0.00 81 1016.0
20260507123321 10 277 0.0 0.0 0.00 0.00 0.00 83 1016.0
20260507122818 10 277 0.0 0.0 0.00 0.00 0.00 84 1016.0
20260507122313 10 278 0.0 0.0 0.00 0.00 0.00 85 1015.9
20260507121810 9 277 0.0 0.0 0.00 0.00 0.00 86 1015.9
20260507121306 8 277 0.0 0.0 0.00 0.00 0.00 86 1016.0
20260507120802 8 277 1.6 1.6 0.00 0.00 0.00 86 1015.9
20260507120259 8 277 0.0 0.0 0.00 0.00 0.00 88 1016.0
20260507115755 8 277 0.0 0.0 0.00 0.00 0.00 88 1015.8
20260507115250 7 277 0.0 0.0 0.00 0.00 0.00 88 1015.9
20260507114746 8 277 0.0 0.0 0.00 0.00 0.00 88 1016.0
20260507114244 8 277 0.0 0.0 0.00 0.00 0.00 87 1015.8
20260507113741 9 277 0.0 0.0 0.00 0.00 0.00 84 1015.8
20260507113238 10 277 0.0 0.0 0.00 0.00 0.00 78 1015.8
20260507112736 9 277 0.0 0.0 0.00 0.00 0.00 82 1015.9
20260507112232 8 277 0.0 0.0 0.00 0.00 0.00 87 1015.8
20260507111730 7 277 0.0 0.0 0.00 0.00 0.00 88 1015.7
20260507111227 6 277 0.0 0.0 0.00 0.00 0.00 88 1015.7
20260507110723 6 277 0.0 0.0 0.00 0.00 0.00 88 1015.6
20260507110220 6 277 0.0 0.0 0.00 0.00 0.00 91 1015.6
20260507105717 6 277 0.0 0.0 0.00 0.00 0.00 93 1015.6
20260507105213 6 277 0.0 0.0 0.00 0.00 0.00 94 1015.4
20260507104710 5 277 0.0 0.0 0.00 0.00 0.00 94 1015.3
20260507104206 5 277 0.0 0.0 0.00 0.00 0.00 94 1015.2
20260507103702 5 277 0.0 0.0 0.00 0.00 0.00 92 1015.1
20260507103159 5 277 0.0 0.0 0.00 0.00 0.00 89 1015.0
20260507102655 5 277 0.0 0.0 0.00 0.00 0.00 89 1015.2
20260507102152 5 277 0.0 0.0 0.00 0.00 0.00 90 1015.1
20260507101647 5 277 0.0 0.0 0.00 0.00 0.00 88 1015.1
20260507101143 5 277 0.0 0.0 0.00 0.00 0.00 88 1014.9
20260507100641 5 277 0.0 0.0 0.00 0.00 0.00 87 1015.0
20260507100140 5 277 0.0 0.0 0.00 0.00 0.00 87 1014.8
20260507095637 5 277 0.0 0.0 0.00 0.00 0.00 87 1015.0
20260507095133 5 277 0.0 0.0 0.00 0.00 0.00 87 1014.9
20260507094629 5 277 0.0 0.0 0.00 0.00 0.00 86 1015.0
20260507094126 5 277 0.0 0.0 0.00 0.00 0.00 88 1015.0
20260507093624 5 277 0.0 0.0 0.00 0.00 0.00 88 1014.9
20260507093123 5 277 0.0 0.0 0.00 0.00 0.00 87 1015.1